Weather History for Monroe, MI

Change the Weather History Date:

Monday, May 13, 2013

  Actual Average Record
Temperature  
Mean Temperature 42 °F -  
Max Temperature 55 °F 68 °F 89 °F (1991)
Min Temperature 28 °F 48 °F 28 °F (2013)
Degree Days  
Heating Degree Days 24    
Moisture  
Dew Point 26 °F    
Average Humidity 56    
Maximum Humidity 93    
Minimum Humidity 25    
Precipitation  
Precipitation 0.00 in - - ()
Sea Level Pressure  
Sea Level Pressure 30.12 in    
Wind  
Wind Speed 4 mph (WNW)    
Max Wind Speed 15 mph    
Max Gust Speed 21 mph    
Visibility 10 miles    
Events      
Averages and records for this station are not official NWS values.
T = Trace of Precipitation, MM = Missing Value Source: NWS Daily Summary

Daily Weather History Graph

Daily Weather History Graph

Search for Another Location

Airport:

Trip Planner

Search our weather history database for the weather conditions in past years. The results will help you decide how hot, cold, wet, or windy it might be!

Date:

Astronomy

May. 13, 2013 Rise Set
Actual Time 6:15 AM EDT 8:45 PM EDT
Civil Twilight 5:43 AM EDT 9:17 PM EDT
Nautical Twilight 5:04 AM EDT 9:56 PM EDT
Astronomical Twilight 4:19 AM EDT 10:41 PM EDT
Moon 8:59 AM EDT (5/13) 11:54 PM EDT (5/13)
Length of Visible Light 15h 33m
Length of Day
14h 30m
Waxing Crescent, 12% of the Moon is Illuminated
May 13
Waxing Crescent
May 18
First Quarter
May 25
Full
May 31
Last Quarter
Jun 8
New

Hourly Weather History & Observations

Time (EDT) Temp. Windchill Dew Point Humidity Pressure Visibility Wind Dir Wind Speed Gust Speed Precip Events Conditions
12:13 AM 35.6 °F 32.8 °F 26.6 °F 70% 30.09 in 10.0 mi West 3.5 mph - N/A   Clear
12:33 AM 35.6 °F - 28.4 °F 75% 30.09 in 10.0 mi Calm Calm - N/A   Clear
12:53 AM 33.8 °F - 28.4 °F 81% 30.09 in 10.0 mi Calm Calm - N/A   Clear
1:13 AM 33.8 °F - 28.4 °F 81% 30.08 in 10.0 mi Calm Calm - N/A   Clear
1:33 AM 33.8 °F - 28.4 °F 81% 30.08 in 10.0 mi Calm Calm - N/A   Clear
1:53 AM 32.0 °F - 28.4 °F 87% 30.08 in 10.0 mi Calm Calm - N/A   Clear
2:13 AM 33.8 °F 30.8 °F 28.4 °F 81% 30.08 in 10.0 mi WNW 3.5 mph - N/A   Clear
2:34 AM 30.2 °F - 28.4 °F 93% 30.08 in 10.0 mi Calm Calm - N/A   Clear
2:54 AM 33.8 °F 29.6 °F 28.4 °F 81% 30.09 in 10.0 mi North 4.6 mph - N/A   Clear
3:14 AM 33.8 °F 30.8 °F 28.4 °F 81% 30.09 in 10.0 mi West 3.5 mph - N/A   Clear
3:34 AM 32.0 °F 28.7 °F 28.4 °F 87% 30.09 in 10.0 mi West 3.5 mph - N/A   Clear
3:54 AM 32.0 °F - 28.4 °F 87% 30.09 in 10.0 mi Calm Calm - N/A   Clear
4:14 AM 33.8 °F - 28.4 °F 81% 30.09 in 10.0 mi Calm Calm - N/A   Clear
4:34 AM 30.2 °F - 26.6 °F 86% 30.09 in 10.0 mi Calm Calm - N/A   Clear
4:54 AM 32.0 °F - 28.4 °F 87% 30.09 in 10.0 mi Calm Calm - N/A   Clear
5:14 AM 30.2 °F - 26.6 °F 86% 30.09 in 10.0 mi Calm Calm - N/A   Clear
5:35 AM 30.2 °F - 26.6 °F 86% 30.09 in 10.0 mi Calm Calm - N/A   Clear
5:55 AM 28.4 °F - 26.6 °F 93% 30.09 in 10.0 mi Calm Calm - N/A   Clear
6:15 AM 28.4 °F - 26.6 °F 93% 30.09 in 10.0 mi Calm Calm - N/A   Clear
6:35 AM 30.2 °F - 26.6 °F 86% 30.10 in 10.0 mi Calm Calm - N/A   Clear
6:55 AM 30.2 °F 26.7 °F 28.4 °F 93% 30.10 in 10.0 mi West 3.5 mph - N/A   Clear
7:15 AM 33.8 °F 30.8 °F 30.2 °F 87% 30.11 in 10.0 mi West 3.5 mph - N/A   Clear
7:35 AM 35.6 °F 32.8 °F 30.2 °F 81% 30.12 in 10.0 mi NW 3.5 mph - N/A   Clear
7:55 AM 37.4 °F 31.4 °F 28.4 °F 70% 30.13 in 10.0 mi NW 8.1 mph - N/A   Clear
8:15 AM 37.4 °F 32.8 °F 28.4 °F 70% 30.13 in 10.0 mi NW 5.8 mph - N/A   Clear
8:36 AM 39.2 °F 33.6 °F 28.4 °F 65% 30.14 in 10.0 mi NW 8.1 mph - N/A   Clear
8:56 AM 41.0 °F 34.7 °F 26.6 °F 57% 30.15 in 10.0 mi NW 10.4 mph - N/A   Clear
9:36 AM 42.8 °F 36.6 °F 24.8 °F 49% 30.15 in 10.0 mi NNW 11.5 mph 16.1 mph N/A   Clear
9:56 AM 44.6 °F 39.7 °F 24.8 °F 46% 30.16 in 10.0 mi NW 9.2 mph 17.3 mph N/A   Clear
10:16 AM 44.6 °F 40.7 °F 23.0 °F 43% 30.16 in 10.0 mi NW 6.9 mph 17.3 mph N/A   Clear
10:36 AM 46.4 °F 42.4 °F 24.8 °F 43% 30.16 in 10.0 mi NW 8.1 mph 19.6 mph N/A   Clear
10:56 AM 46.4 °F 42.9 °F 24.8 °F 43% 30.16 in 10.0 mi NNW 6.9 mph - N/A   Clear
11:11 AM 46.4 °F 42.4 °F 24.8 °F 43% 30.16 in 10.0 mi WNW 8.1 mph - N/A   Clear
11:31 AM 48.2 °F - 24.8 °F 40% 30.17 in 10.0 mi North 9.2 mph 16.1 mph N/A   Clear
11:51 AM 48.2 °F - 24.8 °F 40% 30.17 in 10.0 mi North 8.1 mph - N/A   Scattered Clouds
12:12 PM 48.2 °F - 23.0 °F 37% 30.17 in 10.0 mi NW 10.4 mph 17.3 mph N/A   Clear
12:32 PM 48.2 °F - 23.0 °F 37% 30.17 in 10.0 mi WNW 4.6 mph - N/A   Scattered Clouds
12:52 PM 51.8 °F - 24.8 °F 35% 30.16 in 10.0 mi WNW 9.2 mph - N/A   Scattered Clouds
1:12 PM 51.8 °F - 24.8 °F 35% 30.16 in 10.0 mi NW 9.2 mph - N/A   Clear
1:32 PM 51.8 °F - 24.8 °F 35% 30.16 in 10.0 mi West 9.2 mph 18.4 mph N/A   Clear
1:52 PM 53.6 °F - 24.8 °F 33% 30.16 in 10.0 mi NW 15.0 mph 20.7 mph N/A   Clear
2:12 PM 53.6 °F - 24.8 °F 33% 30.16 in 10.0 mi NW 12.7 mph 19.6 mph N/A   Scattered Clouds
2:32 PM 53.6 °F - 24.8 °F 33% 30.15 in 10.0 mi WSW 8.1 mph - N/A   Mostly Cloudy
2:52 PM 55.4 °F - 24.8 °F 31% 30.15 in 10.0 mi West 9.2 mph - N/A   Scattered Clouds
3:13 PM 53.6 °F - 23.0 °F 30% 30.15 in 10.0 mi West 12.7 mph - N/A   Scattered Clouds
3:33 PM 53.6 °F - 21.2 °F 28% 30.15 in 10.0 mi WNW 6.9 mph - N/A   Scattered Clouds
4:33 PM 55.4 °F - 21.2 °F 26% 30.12 in 10.0 mi West 5.8 mph 10.4 mph N/A   Scattered Clouds
4:53 PM 55.4 °F - 21.2 °F 26% 30.12 in 10.0 mi WNW 6.9 mph - N/A   Scattered Clouds
5:13 PM 55.4 °F - 19.4 °F 25% 30.11 in 10.0 mi WNW 5.8 mph 19.6 mph N/A   Scattered Clouds
5:33 PM 55.4 °F - 21.2 °F 26% 30.11 in 10.0 mi Calm Calm - N/A   Clear
5:53 PM 55.4 °F - 19.4 °F 25% 30.11 in 10.0 mi West 9.2 mph 18.4 mph N/A   Clear
6:13 PM 55.4 °F - 19.4 °F 25% 30.11 in 10.0 mi Calm Calm - N/A   Clear
6:34 PM 55.4 °F - 19.4 °F 25% 30.10 in 10.0 mi NW 8.1 mph - N/A   Clear
6:54 PM 55.4 °F - 19.4 °F 25% 30.10 in 10.0 mi WNW 6.9 mph - N/A   Clear
7:54 PM 55.4 °F - 21.2 °F 26% 30.11 in 10.0 mi WNW 3.5 mph - N/A   Clear
8:14 PM 53.6 °F - 19.4 °F 26% 30.11 in 10.0 mi Calm Calm - N/A   Clear
8:34 PM 51.8 °F - 24.8 °F 35% 30.11 in 10.0 mi ESE 3.5 mph - N/A   Clear
8:54 PM 48.2 °F - 30.2 °F 50% 30.11 in 10.0 mi ESE 3.5 mph - N/A   Clear
9:14 PM 48.2 °F - 30.2 °F 50% 30.12 in 10.0 mi East 3.5 mph - N/A   Clear
9:34 PM 46.4 °F 45.2 °F 32.0 °F 57% 30.11 in 10.0 mi ESE 3.5 mph - N/A   Clear
9:55 PM 46.4 °F 45.2 °F 33.8 °F 62% 30.11 in 10.0 mi SE 3.5 mph - N/A   Clear
10:15 PM 48.2 °F - 33.8 °F 58% 30.11 in 10.0 mi SE 3.5 mph - N/A   Clear
10:35 PM 46.4 °F 45.2 °F 33.8 °F 62% 30.11 in 10.0 mi SSE 3.5 mph - N/A   Clear
10:55 PM 48.2 °F - 33.8 °F 58% 30.11 in 10.0 mi South 3.5 mph - N/A   Clear
11:15 PM 46.4 °F 43.5 °F 33.8 °F 62% 30.10 in 10.0 mi South 5.8 mph - N/A   Clear
11:35 PM 46.4 °F 42.4 °F 32.0 °F 57% 30.11 in 10.0 mi South 8.1 mph - N/A   Clear
11:55 PM 48.2 °F - 32.0 °F 54% 30.11 in 10.0 mi South 8.1 mph - N/A   Clear